West Bridgewater, Pennsylvania
Current Conditions -  °F | °C
As of 8:51 PM on Saturday 20 Dec 2014 (Local Time) from KPIT Reporting Station
Overcast Overcast  
Wind Chill: 28°   Ceiling: 10000
Heat Index: 28°   Visibility: 10mi
Dew Point: 20°   Wind: 0mph
Humidity: 72%   Direction: NA
Pressure: 30.25"   Gusts: NA
Location:  40.7011°N, 80.3605°W
Report Text: KPIT 210151Z 00000KT 10SM FEW028 BKN100 OVC150 M02/M07 A3025 RMK AO2 SLP268 T10221067
Loading
Personal Weather Stations






























Interactive Weather Map New forecast layout! Learn more

10-Day Weather Forecast

Advertisements
Track Severe Weather on mobile